Aérodrome :
LOGIN :

S'inscrire | Disclaimer

   EN    FR    IT 

 










Légende :    VFR   VFR Marginal   IFR   IFR Intensif   IFR Très Intensif
Visi : 
Plafond : 
>= 8 km
>= 3000ft
5 à 8 km
1000 à 3000 ft
1500m à 5 km
500 à 1000 ft
800 à 1500m
200 à 500 ft
< 800m
< 200 ft
Symboles :   Orages  Brouillard  Fortes neiges  Fortes précipitations  Vent > 20 kt
SIGMETs :   Divers  Orages  Givrage  Turbulence  Onde Orograph.  Cendres Volcan.







- Altitude de l'aérodrome : 645 ft
- Code IATA : DLE
- Voir les cartes d'approche


LFGJ - Dole Tavaux

DERNIER METAR :
  • 200130Z AUTO VRB01KT 8000 OVC007 04/04 Q1025

METARs EXPIRÉS :
  • 200100Z AUTO VRB02KT 8000 OVC006 04/04 Q1025
  • 200030Z AUTO VRB02KT 7000 OVC004 04/04 Q1025
  • 200000Z AUTO 00000KT 5000 BR OVC003 04/04 Q1026
  • 192330Z AUTO VRB02KT 5000 BR OVC003 04/04 Q1026
  • 192300Z AUTO VRB03KT 1600 0800 R05/1000N BCFG VV/// 04/04 Q1025

Prévision TAF périmée.
Pas de NOTAMs connus pour ce terrain.



MET'MAP, la Météo Aéronautique d'un coup d'oeil ! - Copyright ORBIFLY Décembre 2007 - Disclaimer

ORBIFLY MET'MAP TEAM :

Programmation & Développement : Alexandra Zaïnal
Conception & Développement : Baudouin d'Aumeries
Co-Programmation & Développement : Marc-Olivier Méhu
Soutien technique & logistique : Manuel Goepfert

Contact : metmap@orbifly.com




SOURCES & CREDITS :

   NOAA